Location: Dead Woman Crossing
(43.5369°N, 106.3228°W)
Time: 20:05:48
(UTC+00:00)

M-CUBED/EXP-1 PRIME - Pass Details

Date: 04 July 2022
Orbit: 422 x 631 km, 101.7° (Epoch: 17 August)

Event Time Altitude Azimuth Distance (km) Brightness Sun altitude
Exits shadow 07:28:41 17° 79° (ENE) 1,201 ? -23.5°
Maximum altitude 07:29:26 18° 61° (ENE) 1,159 ? -23.4°
Drops below altitude 10° 07:31:49 10° 16° (NNE) 1,601 ? -23.4°
Sets 07:34:21 0° 357° (N) 2,518 ? -23.4°
